Flag for Kiribati Weather past 2 weeks in Kiritimati, Christmas Island, Kiribati

Now
79 °F

Partly cloudy.


Feels Like: 82 °F
Forecast: 77 / 83 °F
Wind: 7 mph from Southeast

Location: Christmas / Cassidy

Current Time: Mar 30, 2015 at 9:26:28 PM

Latest Report: Mar 30, 2015 at 9:00 PM


Visibility: N/A

Pressure: 29.80 "Hg

Humidity: 89%

Dew point: 75 °F

Location of KiritimatiLocation

Historic Weather in Kiritimati — Graph

°F

Kiritimati temperature yesterday

Maximum temperature yesterday: 88 °F (at 2:00 PM)
Minimum temperature yesterday: 81 °F (at 12:00 AM)
Average temperature yesterday: 83 °F

Past Weeks' High & Low Weather Summary

 TemperatureHumidityPressure
High88 °F (Mar 18, 12:00 PM)100% (Mar 23, 4:00 AM)29.98 "Hg (Mar 23, 4:00 AM)
Low77 °F (Mar 23, 1:00 AM)66% (Mar 24, 3:00 PM)29.56 "Hg (Mar 16, 10:00 AM)
Average83 °F82%29.84 "Hg
* Reported Mar 15 8:00 PM — Mar 30 8:00 PM, Kiritimati, Weather by CustomWeather, © 2015

Note: Actual official high and low records may vary slightly from our data, if they occured in-between our weather recording intervals... More about our weather records

Advertising

Kiritimati weather history for previous 24 hours

 ConditionsComfort  
Time TempWeatherWind HumidityBarometerVisibility
8:00 PM
Mon, Mar 30
79 °FScattered showers. Partly cloudy.12 mph94%29.86 "HgN/A
7:00 PM79 °FDrizzle. Overcast.9 mph89%29.83 "HgN/A
6:00 PM81 °FPartly cloudy.9 mph84%29.80 "HgN/A
5:00 PM79 °FMostly cloudy.9 mph89%29.80 "HgN/A
4:00 PM84 °FScattered showers. Scattered clouds.14 mph74%29.77 "HgN/A
3:00 PM82 °FScattered showers. Scattered clouds.18 mph84%29.80 "HgN/A
12:00 PM81 °FRain showers. Broken clouds.7 mph89%29.86 "HgN/A
11:00 AM86 °FScattered clouds.14 mph70%29.89 "HgN/A
10:00 AM84 °FScattered clouds.16 mph74%29.92 "HgN/A
9:00 AM84 °FScattered clouds.12 mph79%29.98 "HgN/A
8:00 AM84 °FScattered clouds.12 mph74%29.89 "HgN/A
7:00 AM82 °FPartly sunny.7 mph84%29.89 "HgN/A
6:00 AM81 °FPartly sunny.7 mph89%29.86 "HgN/A
3:00 AM81 °FPassing clouds.9 mph89%29.83 "HgN/A
2:00 AM81 °FPassing clouds.9 mph89%29.83 "HgN/A
1:00 AM81 °FPassing clouds.7 mph89%29.86 "HgN/A
12:00 AM81 °FPassing clouds.7 mph84%29.86 "HgN/A
11:00 PM
Sun, Mar 29
81 °FPassing clouds.9 mph89%29.89 "HgN/A
10:00 PM81 °FPassing clouds.5 mph89%29.89 "HgN/A
9:00 PM81 °FPassing clouds.5 mph84%29.86 "HgN/A
Weather by CustomWeather, © 2015

See weather overviewHow to use our weather pages